Date,TemperatureHighF,TemperatureAvgF,TemperatureLowF,DewpointHighF,DewpointAvgF,DewpointLowF,HumidityHigh,HumidityAvg,HumidityLow,PressureMaxIn,PressureMinIn,WindSpeedMaxMPH,WindSpeedAvgMPH,GustSpeedMaxMPH,PrecipitationSumIn
2013-1-1,33,24,17,-100,-100,-100,0,0,100,0.00,40.00,0,-999,0,0.00
2013-1-2,32,24,14,-100,-100,-100,0,0,100,0.00,40.00,0,-999,0,0.01
2013-1-3,38,27,15,-100,-100,-100,0,0,100,0.00,40.00,0,-999,0,0.01
2013-1-4,51,33,26,-100,-100,-100,0,0,100,0.00,40.00,0,-999,0,0.00
2013-1-5,39,27,21,-100,-100,-100,0,0,100,0.00,40.00,0,-999,0,0.00
2013-1-6,57,38,28,-100,-100,-100,0,0,100,0.00,40.00,0,-999,0,0.00
2013-1-7,44,32,26,-100,-100,-100,0,0,100,0.00,40.00,0,-999,0,0.00
2013-1-8,45,35,24,-100,-100,-100,0,0,100,0.00,40.00,0,-999,0,0.00
2013-1-9,55,45,25,-100,-100,-100,0,0,100,0.00,40.00,0,-999,0,0.00
2013-1-10,57,39,27,-100,-100,-100,0,0,100,0.00,40.00,0,-999,0,0.00
2013-1-11,25,14,8,-100,-100,-100,0,0,100,0.00,40.00,0,-999,0,0.00
2013-1-12,15,10,6,-100,-100,-100,0,0,100,0.00,40.00,0,-999,0,0.00
2013-1-13,18,10,4,-100,-100,-100,0,0,100,0.00,40.00,0,-999,0,0.00
2013-1-14,24,12,5,-100,-100,-100,0,0,100,0.00,40.00,0,-999,0,0.01
2013-1-15,40,30,17,-100,-100,-100,0,0,100,0.00,40.00,0,-999,0,0.12
2013-1-16,52,35,28,-100,-100,-100,0,0,100,0.00,40.00,0,-999,0,0.06
2013-1-17,50,34,27,-100,-100,-100,0,0,100,0.00,40.00,0,-999,0,0.02
2013-1-18,58,43,34,-100,-100,-100,0,0,100,0.00,40.00,0,-999,0,0.01
2013-1-19,45,33,27,-100,-100,-100,0,0,100,0.00,40.00,0,-999,0,0.00
2013-1-20,33,25,19,-100,-100,-100,0,0,100,0.00,40.00,0,-999,0,0.00
2013-1-21,47,27,16,-100,-100,-100,0,0,100,0.00,40.00,0,-999,0,0.00
2013-1-22,49,34,29,-100,-100,-100,0,0,100,0.00,40.00,0,-999,0,0.00
2013-1-23,47,38,30,-100,-100,-100,0,0,100,0.00,40.00,0,-999,0,0.00
2013-1-24,55,43,29,-100,-100,-100,0,0,100,0.00,40.00,0,-999,0,0.00
2013-1-25,52,36,27,-100,-100,-100,0,0,100,0.00,40.00,0,-999,0,0.00
2013-1-26,54,40,34,-100,-100,-100,0,0,100,0.00,40.00,0,-999,0,0.00
2013-1-27,39,34,28,-100,-100,-100,0,0,100,0.00,40.00,0,-999,0,0.00
2013-1-28,34,26,16,-100,-100,-100,0,0,100,0.00,40.00,0,-999,0,0.06
2013-1-29,27,17,3,-100,-100,-100,0,0,100,0.00,40.00,0,-999,0,0.01
2013-1-30,35,24,9,-100,-100,-100,0,0,100,0.00,40.00,0,-999,0,0.05
2013-1-31,33,25,13,-100,-100,-100,0,0,100,0.00,40.00,0,-999,0,0.01
2013-2-1,41,32,25,-100,-100,-100,0,0,100,0.00,40.00,0,-999,0,0.08
2013-2-2,44,28,22,-100,-100,-100,0,0,100,0.00,40.00,0,-999,0,0.12
2013-2-3,48,33,26,-100,-100,-100,0,0,100,0.00,40.00,0,-999,0,0.07
2013-2-4,49,34,26,-100,-100,-100,0,0,100,0.00,40.00,0,-999,0,0.10
2013-2-5,46,34,26,-100,-100,-100,0,0,100,0.00,40.00,0,-999,0,0.05
2013-2-6,43,34,27,-100,-100,-100,0,0,100,0.00,40.00,0,-999,0,0.01
2013-2-7,48,31,23,-100,-100,-100,0,0,100,0.00,40.00,0,-999,0,0.00
2013-2-8,50,34,26,-100,-100,-100,0,0,100,0.00,40.00,0,-999,0,0.00
2013-2-9,38,31,28,-100,-100,-100,0,0,100,0.00,40.00,0,-999,0,0.09
2013-2-10,29,23,14,-100,-100,-100,0,0,100,0.00,40.00,0,-999,0,0.01
2013-2-11,35,17,7,-100,-100,-100,0,0,100,0.00,40.00,0,-999,0,0.09
2013-2-12,42,27,20,-100,-100,-100,0,0,100,0.00,40.00,0,-999,0,0.01
2013-2-13,47,33,25,-100,-100,-100,0,0,100,0.00,40.00,0,-999,0,0.01
2013-2-14,33,26,21,-100,-100,-100,0,0,100,0.00,40.00,0,-999,0,0.03
2013-2-15,33,26,21,-100,-100,-100,0,0,100,0.00,40.00,0,-999,0,0.11
2013-2-16,53,35,29,-100,-100,-100,0,0,100,0.00,40.00,0,-999,0,0.03
2013-2-17,40,33,28,-100,-100,-100,0,0,100,0.00,40.00,0,-999,0,0.01
2013-2-18,29,22,13,-100,-100,-100,0,0,100,0.00,40.00,0,-999,0,0.01
2013-2-19,42,26,14,-100,-100,-100,0,0,100,0.00,40.00,0,-999,0,0.03
2013-2-20,33,25,20,-100,-100,-100,0,0,100,0.00,40.00,0,-999,0,0.03
2013-2-21,35,22,16,-100,-100,-100,0,0,100,0.00,40.00,0,-999,0,0.00
2013-2-22,37,25,18,-100,-100,-100,0,0,100,0.00,40.00,0,-999,0,0.00
2013-2-23,40,31,24,-100,-100,-100,0,0,100,0.00,40.00,0,-999,0,0.00
2013-2-24,37,26,18,-100,-100,-100,0,0,100,0.00,40.00,0,-999,0,0.04
2013-2-25,45,30,20,-100,-100,-100,0,0,100,0.00,40.00,0,-999,0,0.02
2013-2-26,36,30,23,-100,-100,-100,0,0,100,0.00,40.00,0,-999,0,0.00
2013-2-27,41,26,18,-100,-100,-100,0,0,100,0.00,40.00,0,-999,0,0.00
2013-2-28,43,30,22,-100,-100,-100,0,0,100,0.00,40.00,0,-999,0,0.00
2013-3-1,50,36,23,-100,-100,-100,0,0,100,0.00,40.00,0,-999,0,0.00
2013-3-2,61,44,36,-100,-100,-100,0,0,100,0.00,40.00,0,-999,0,0.00
2013-3-3,55,41,29,-100,-100,-100,0,0,100,0.00,40.00,0,-999,0,0.00
2013-3-4,30,24,14,-100,-100,-100,0,0,100,0.00,40.00,0,-999,0,0.00
2013-3-5,38,24,12,-100,-100,-100,0,0,100,0.00,40.00,0,-999,0,0.00
2013-3-6,58,40,22,-100,-100,-100,0,0,100,0.00,40.00,0,-999,0,0.00
2013-3-7,49,39,31,-100,-100,-100,0,0,100,0.00,40.00,0,-999,0,0.00
2013-3-8,49,37,28,-100,-100,-100,0,0,100,0.00,40.00,0,-999,0,0.00
2013-3-9,39,34,30,-100,-100,-100,0,0,100,0.00,40.00,0,-999,0,0.00
2013-3-10,49,34,20,-100,-100,-100,0,0,100,0.00,40.00,0,-999,0,0.00
2013-3-11,39,33,26,-100,-100,-100,0,0,100,0.00,40.00,0,-999,0,0.12
2013-3-12,40,29,16,-100,-100,-100,0,0,100,0.00,40.00,0,-999,0,0.08
2013-3-13,63,45,35,-100,-100,-100,0,0,100,0.00,40.00,0,-999,0,0.01
2013-3-14,65,50,41,-100,-100,-100,0,0,100,0.00,40.00,0,-999,0,0.00
2013-3-15,59,50,41,-100,-100,-100,0,0,100,0.00,40.00,0,-999,0,0.00
2013-3-16,48,39,32,-100,-100,-100,0,0,100,0.00,40.00,0,-999,0,0.04
2013-3-17,45,36,25,-100,-100,-100,0,0,100,0.00,40.00,0,-999,0,0.02
2013-3-18,38,28,16,-100,-100,-100,0,0,100,0.00,40.00,0,-999,0,0.02
2013-3-19,31,26,18,-100,-100,-100,0,0,100,0.00,40.00,0,-999,0,0.01
2013-3-20,52,36,19,-100,-100,-100,0,0,100,0.00,40.00,0,-999,0,0.01
2013-3-21,44,36,30,-100,-100,-100,0,0,100,0.00,40.00,0,-999,0,0.06
2013-3-22,32,27,21,-100,-100,-100,0,0,100,0.00,40.00,0,-999,0,0.01
2013-3-23,27,18,11,-100,-100,-100,0,0,100,0.00,40.00,0,-999,0,0.02
2013-3-24,28,18,11,-100,-100,-100,0,0,100,0.00,40.00,0,-999,0,0.02
2013-3-25,40,24,12,-100,-100,-100,0,0,100,0.00,40.00,0,-999,0,0.02
2013-3-26,50,35,24,-100,-100,-100,0,0,100,0.00,40.00,0,-999,0,0.01
2013-3-27,55,40,31,-100,-100,-100,0,0,100,0.00,40.00,0,-999,0,0.00
2013-3-28,61,46,33,-100,-100,-100,0,0,100,0.00,40.00,0,-999,0,0.00
2013-3-29,57,47,39,-100,-100,-100,0,0,100,0.00,40.00,0,-999,0,0.00
2013-3-30,49,43,36,-100,-100,-100,0,0,100,0.00,40.00,0,-999,0,0.03
2013-3-31,58,43,31,-100,-100,-100,0,0,100,0.00,40.00,0,-999,0,0.03
2013-4-1,54,41,32,-100,-100,-100,0,0,100,0.00,40.00,0,-999,0,0.00
2013-4-2,60,45,32,-100,-100,-100,0,0,100,0.00,40.00,0,-999,0,0.00
2013-4-3,61,52,41,-100,-100,-100,0,0,100,0.00,40.00,0,-999,0,0.00
2013-4-4,61,51,36,-100,-100,-100,0,0,100,0.00,40.00,0,-999,0,0.00
2013-4-5,61,51,42,-100,-100,-100,0,0,100,0.00,40.00,0,-999,0,0.31
2013-4-6,56,47,37,-100,-100,-100,0,0,100,0.00,40.00,0,-999,0,0.31
2013-4-7,59,46,37,-100,-100,-100,0,0,100,0.00,40.00,0,-999,0,0.00
2013-4-8,43,30,19,-100,-100,-100,0,0,100,0.00,40.00,0,-999,0,0.00
2013-4-9,24,18,15,-100,-100,-100,0,0,100,0.00,40.00,0,-999,0,0.00
2013-4-10,41,28,14,-100,-100,-100,0,0,100,0.00,40.00,0,-999,0,0.65
2013-4-11,49,39,30,-100,-100,-100,0,0,100,0.00,40.00,0,-999,0,0.02
2013-4-12,45,37,31,-100,-100,-100,0,0,100,0.00,40.00,0,-999,0,0.01
2013-4-13,55,41,30,-100,-100,-100,0,0,100,0.00,40.00,0,-999,0,0.03
2013-4-14,40,33,23,-100,-100,-100,0,0,100,0.00,40.00,0,-999,0,0.03
2013-4-15,28,23,20,-100,-100,-100,0,0,100,0.00,40.00,0,-999,0,0.00
2013-4-16,32,25,20,-100,-100,-100,0,0,100,0.00,40.00,0,-999,0,0.03
2013-4-17,28,24,18,-100,-100,-100,0,0,100,0.00,40.00,0,-999,0,0.02
2013-4-18,42,29,15,-100,-100,-100,0,0,100,0.00,40.00,0,-999,0,0.26
2013-4-19,50,39,29,-100,-100,-100,0,0,100,0.00,40.00,0,-999,0,0.01
2013-4-20,54,42,33,-100,-100,-100,0,0,100,0.00,40.00,0,-999,0,0.10
2013-4-21,41,36,29,-100,-100,-100,0,0,100,0.00,40.00,0,-999,0,0.20
2013-4-22,31,25,16,-100,-100,-100,0,0,100,0.00,40.00,0,-999,0,0.13
2013-4-23,44,26,12,-100,-100,-100,0,0,100,0.00,40.00,0,-999,0,0.46
2013-4-24,44,33,24,-100,-100,-100,0,0,100,0.00,40.00,0,-999,0,0.20
2013-4-25,66,49,37,-100,-100,-100,0,0,100,0.00,40.00,0,-999,0,0.02
2013-4-26,66,51,36,-100,-100,-100,0,0,100,0.00,40.00,0,-999,0,0.00
2013-4-27,70,56,41,-100,-100,-100,0,0,100,0.00,40.00,0,-999,0,0.00
2013-4-28,57,49,42,-100,-100,-100,0,0,100,0.00,40.00,0,-999,0,0.08
2013-4-29,63,52,41,-100,-100,-100,0,0,100,0.00,40.00,0,-999,0,0.03
2013-4-30,38,35,32,-100,-100,-100,0,0,100,0.00,40.00,0,-999,0,0.12
2013-5-1,42,34,28,-100,-100,-100,0,0,100,0.00,40.00,0,-999,0,0.38
2013-5-2,54,40,29,-100,-100,-100,0,0,100,0.00,40.00,0,-999,0,0.02
2013-5-3,61,50,38,-100,-100,-100,0,0,100,0.00,40.00,0,-999,0,0.00
2013-5-4,49,46,41,-100,-100,-100,0,0,100,0.00,40.00,0,-999,0,0.17
2013-5-5,62,48,36,-100,-100,-100,0,0,100,0.00,40.00,0,-999,0,0.03
2013-5-6,68,54,41,-100,-100,-100,0,0,100,0.00,40.00,0,-999,0,0.00
2013-5-7,73,58,47,-100,-100,-100,0,0,100,0.00,40.00,0,-999,0,0.02
2013-5-8,66,56,48,-100,-100,-100,0,0,100,0.00,40.00,0,-999,0,0.02
2013-5-9,68,56,46,-100,-100,-100,0,0,100,0.00,40.00,0,-999,0,0.04
2013-5-10,66,54,45,-100,-100,-100,0,0,100,0.00,40.00,0,-999,0,0.07
2013-5-11,67,53,39,-100,-100,-100,0,0,100,0.00,40.00,0,-999,0,0.05
2013-5-12,78,67,53,-100,-100,-100,0,0,100,0.00,40.00,0,-999,0,0.00
2013-5-13,86,72,61,-100,-100,-100,0,0,100,0.00,40.00,0,-999,0,0.00
2013-5-14,77,66,50,-100,-100,-100,0,0,100,0.00,40.00,0,-999,0,0.00
2013-5-15,71,58,46,-100,-100,-100,0,0,100,0.00,40.00,0,-999,0,0.00
2013-5-16,66,56,49,-100,-100,-100,0,0,100,0.00,40.00,0,-999,0,0.07
2013-5-17,61,54,49,-100,-100,-100,0,0,100,0.00,40.00,0,-999,0,0.11
2013-5-18,56,50,45,-100,-100,-100,0,0,100,0.00,40.00,0,-999,0,0.36
2013-5-19,60,50,45,-100,-100,-100,0,0,100,0.00,40.00,0,-999,0,0.53
2013-5-20,53,47,44,-100,-100,-100,0,0,100,0.00,40.00,0,-999,0,1.04
2013-5-21,60,54,46,-100,-100,-100,0,0,100,0.00,40.00,0,-999,0,0.06
2013-5-22,59,51,41,-100,-100,-100,0,0,100,0.00,40.00,0,-999,0,0.00
2013-5-23,63,52,45,-100,-100,-100,0,0,100,0.00,40.00,0,-999,0,0.25
2013-5-24,70,57,47,-100,-100,-100,0,0,100,0.00,40.00,0,-999,0,0.01
2013-5-25,79,62,46,-100,-100,-100,0,0,100,0.00,40.00,0,-999,0,0.00
2013-5-26,75,59,44,-100,-100,-100,0,0,100,0.00,40.00,0,-999,0,0.04
2013-5-27,69,56,44,-100,-100,-100,0,0,100,0.00,40.00,0,-999,0,0.04
2013-5-28,70,54,42,-100,-100,-100,0,0,100,0.00,40.00,0,-999,0,0.02
2013-5-29,56,50,45,-100,-100,-100,0,0,100,0.00,40.00,0,-999,0,0.92
2013-5-30,48,48,48,-100,-100,-100,0,0,100,0.00,40.00,0,-999,0,0.95
2013-5-31,54,51,46,-100,-100,-100,0,0,100,0.00,40.00,0,-999,0,0.00
2013-6-1,59,52,42,-100,-100,-100,0,0,100,0.00,40.00,0,-999,0,0.87
2013-6-2,79,59,45,-100,-100,-100,0,0,100,0.00,40.00,0,-999,0,0.87
2013-6-3,68,56,42,-100,-100,-100,0,0,100,0.00,40.00,0,-999,0,0.00
2013-6-4,48,44,42,-100,-100,-100,0,0,100,0.00,40.00,0,-999,0,0.00
2013-6-5,66,50,38,-100,-100,-100,0,0,100,0.00,40.00,0,-999,0,0.00
2013-6-6,71,58,44,-100,-100,-100,0,0,100,0.00,40.00,0,-999,0,0.00
2013-6-7,81,62,50,-100,-100,-100,0,0,100,0.00,40.00,0,-999,0,0.00
2013-6-8,72,61,54,-100,-100,-100,0,0,100,0.00,40.00,0,-999,0,0.11
2013-6-9,85,63,49,-100,-100,-100,0,0,100,0.00,40.00,0,-999,0,0.00
2013-6-10,81,68,57,-100,-100,-100,0,0,100,0.00,40.00,0,-999,0,0.00
2013-6-11,79,62,52,-100,-100,-100,0,0,100,0.00,40.00,0,-999,0,0.02
2013-6-12,77,61,51,-100,-100,-100,0,0,100,0.00,40.00,0,-999,0,0.12
2013-6-13,83,64,53,-100,-100,-100,0,0,100,0.00,40.00,0,-999,0,0.11
2013-6-14,71,58,45,-100,-100,-100,0,0,100,0.00,40.00,0,-999,0,0.00
2013-6-15,78,57,43,-100,-100,-100,0,0,100,0.00,40.00,0,-999,0,0.00
2013-6-16,76,61,52,-100,-100,-100,0,0,100,0.00,40.00,0,-999,0,0.00
2013-6-17,77,63,50,-100,-100,-100,0,0,100,0.00,40.00,0,-999,0,0.00
2013-6-18,75,62,53,-100,-100,-100,0,0,100,0.00,40.00,0,-999,0,0.61
2013-6-19,89,72,52,-100,-100,-100,0,0,100,0.00,40.00,0,-999,0,0.05
2013-6-20,75,60,46,-100,-100,-100,0,0,100,0.00,40.00,0,-999,0,0.00
2013-6-22,59,54,48,-100,-100,-100,0,0,100,0.00,40.00,0,-999,0,1.07
2013-6-23,76,58,42,-100,-100,-100,0,0,100,0.00,40.00,0,-999,0,0.01
2013-6-24,80,66,53,-100,-100,-100,0,0,100,0.00,40.00,0,-999,0,0.00
2013-6-25,80,66,55,-100,-100,-100,0,0,100,0.00,40.00,0,-999,0,0.00
2013-6-26,79,68,56,-100,-100,-100,0,0,100,0.00,40.00,0,-999,0,0.00
2013-6-27,85,68,54,-100,-100,-100,0,0,100,0.00,40.00,0,-999,0,0.00
2013-6-28,82,67,56,-100,-100,-100,0,0,100,0.00,40.00,0,-999,0,0.00
2013-6-29,83,68,55,-100,-100,-100,0,0,100,0.00,40.00,0,-999,0,0.00
2013-6-30,82,68,59,-100,-100,-100,0,0,100,0.00,40.00,0,-999,0,0.00
2013-7-1,83,68,54,-100,-100,-100,0,0,100,0.00,40.00,0,-999,0,0.00
2013-7-2,84,70,60,-100,-100,-100,0,0,100,0.00,40.00,0,-999,0,0.00
2013-7-3,89,73,53,-100,-100,-100,0,0,100,0.00,40.00,0,-999,0,0.00
2013-7-4,81,70,59,-100,-100,-100,0,0,100,0.00,40.00,0,-999,0,0.96
2013-7-5,77,65,57,-100,-100,-100,0,0,100,0.00,40.00,0,-999,0,1.54
2013-7-6,80,64,56,-100,-100,-100,0,0,100,0.00,40.00,0,-999,0,0.12
2013-7-7,85,68,57,-100,-100,-100,0,0,100,0.00,40.00,0,-999,0,0.01
2013-7-8,88,66,59,-100,-100,-100,0,0,100,0.00,40.00,0,-999,0,0.00
2013-7-9,79,67,54,-100,-100,-100,0,0,100,0.00,40.00,0,-999,0,0.00
2013-7-10,88,71,57,-100,-100,-100,0,0,100,0.00,40.00,0,-999,0,0.00
2013-7-11,95,77,62,-100,-100,-100,0,0,100,0.00,40.00,0,-999,0,0.00
2013-7-12,79,69,61,-100,-100,-100,0,0,100,0.00,40.00,0,-999,0,0.04
2013-7-13,88,73,62,-100,-100,-100,0,0,100,0.00,40.00,0,-999,0,0.01
2013-7-14,78,66,56,-100,-100,-100,0,0,100,0.00,40.00,0,-999,0,0.03
2013-7-15,89,70,55,-100,-100,-100,0,0,100,0.00,40.00,0,-999,0,0.03
2013-7-16,78,68,59,-100,-100,-100,0,0,100,0.00,40.00,0,-999,0,0.00
2013-7-17,90,71,55,-100,-100,-100,0,0,100,0.00,40.00,0,-999,0,0.00
2013-7-18,86,74,62,-100,-100,-100,0,0,100,0.00,40.00,0,-999,0,0.08
2013-7-19,88,72,59,-100,-100,-100,0,0,100,0.00,40.00,0,-999,0,0.08
2013-7-20,87,72,62,-100,-100,-100,0,0,100,0.00,40.00,0,-999,0,0.00
2013-7-21,86,72,56,-100,-100,-100,0,0,100,0.00,40.00,0,-999,0,0.00
2013-7-22,94,73,53,-100,-100,-100,0,0,100,0.00,40.00,0,-999,0,0.00
2013-7-23,86,72,60,-100,-100,-100,0,0,100,0.00,40.00,0,-999,0,0.00
2013-7-24,84,72,57,-100,-100,-100,0,0,100,0.00,40.00,0,-999,0,0.00
2013-7-25,80,66,57,-100,-100,-100,0,0,100,0.00,40.00,0,-999,0,0.05
2013-7-26,82,64,50,-100,-100,-100,0,0,100,0.00,40.00,0,-999,0,0.02
2013-7-27,75,65,58,-100,-100,-100,0,0,100,0.00,40.00,0,-999,0,0.30
2013-7-28,80,66,57,-100,-100,-100,0,0,100,0.00,40.00,0,-999,0,0.03
2013-7-29,72,62,56,-100,-100,-100,0,0,100,0.00,40.00,0,-999,0,0.03
2013-7-30,76,64,56,-100,-100,-100,0,0,100,0.00,40.00,0,-999,0,0.25
2013-7-31,83,66,52,-100,-100,-100,0,0,100,0.00,40.00,0,-999,0,0.25
2013-8-1,84,69,59,-100,-100,-100,0,0,100,0.00,40.00,0,-999,0,0.17
2013-8-2,79,65,56,-100,-100,-100,0,0,100,0.00,40.00,0,-999,0,0.17
2013-8-3,79,66,55,-100,-100,-100,0,0,100,0.00,40.00,0,-999,0,0.00
2013-8-4,84,69,54,-100,-100,-100,0,0,100,0.00,40.00,0,-999,0,0.01
2013-8-5,85,69,56,-100,-100,-100,0,0,100,0.00,40.00,0,-999,0,0.02
2013-8-6,78,65,52,-100,-100,-100,0,0,100,0.00,40.00,0,-999,0,0.00
2013-8-7,81,66,55,-100,-100,-100,0,0,100,0.00,40.00,0,-999,0,0.09
2013-8-8,74,63,55,-100,-100,-100,0,0,100,0.00,40.00,0,-999,0,0.15
2013-8-9,68,62,56,-100,-100,-100,0,0,100,0.00,40.00,0,-999,0,0.30
2013-8-10,84,65,53,-100,-100,-100,0,0,100,0.00,40.00,0,-999,0,0.14
2013-8-11,83,66,56,-100,-100,-100,0,0,100,0.00,40.00,0,-999,0,0.00
2013-8-12,79,67,53,-100,-100,-100,0,0,100,0.00,40.00,0,-999,0,0.01
2013-8-13,76,63,51,-100,-100,-100,0,0,100,0.00,40.00,0,-999,0,0.01
2013-8-14,79,67,58,-100,-100,-100,0,0,100,0.00,40.00,0,-999,0,0.01
2013-8-15,83,68,55,-100,-100,-100,0,0,100,0.00,40.00,0,-999,0,0.01
2013-8-16,92,75,63,-100,-100,-100,0,0,100,0.00,40.00,0,-999,0,0.00
2013-8-17,89,77,67,-100,-100,-100,0,0,100,0.00,40.00,0,-999,0,0.00
2013-8-18,83,73,62,-100,-100,-100,0,0,100,0.00,40.00,0,-999,0,0.00
2013-8-19,89,74,59,-100,-100,-100,0,0,100,0.00,40.00,0,-999,0,0.00
2013-8-20,86,74,65,-100,-100,-100,0,0,100,0.00,40.00,0,-999,0,0.00
2013-8-21,81,71,65,-100,-100,-100,0,0,100,0.00,40.00,0,-999,0,0.00
2013-8-22,81,70,64,-100,-100,-100,0,0,100,0.00,40.00,0,-999,0,0.04
2013-8-23,85,72,61,-100,-100,-100,0,0,100,0.00,40.00,0,-999,0,0.01
2013-8-24,81,70,61,-100,-100,-100,0,0,100,0.00,40.00,0,-999,0,0.01
2013-8-25,86,71,62,-100,-100,-100,0,0,100,0.00,40.00,0,-999,0,0.00
2013-8-26,86,76,68,-100,-100,-100,0,0,100,0.00,40.00,0,-999,0,0.00
2013-8-27,82,72,64,-100,-100,-100,0,0,100,0.00,40.00,0,-999,0,0.00
2013-8-28,90,83,70,-100,-100,-100,0,0,100,0.00,40.00,0,-999,0,0.07
2013-8-29,88,72,59,-100,-100,-100,0,0,100,0.00,40.00,0,-999,0,0.00
2013-8-30,92,74,64,-100,-100,-100,0,0,100,0.00,40.00,0,-999,0,0.00
2013-8-31,78,68,58,-100,-100,-100,0,0,100,0.00,40.00,0,-999,0,0.00
2013-9-1,85,68,54,-100,-100,-100,0,0,100,0.00,40.00,0,-999,0,0.00
2013-9-2,84,70,62,-100,-100,-100,0,0,100,0.00,40.00,0,-999,0,0.10
2013-9-3,85,70,60,-100,-100,-100,0,0,100,0.00,40.00,0,-999,0,0.07
2013-9-4,90,74,65,-100,-100,-100,0,0,100,0.00,40.00,0,-999,0,0.00
2013-9-5,90,76,63,-100,-100,-100,0,0,100,0.00,40.00,0,-999,0,0.00
2013-9-6,88,74,65,-100,-100,-100,0,0,100,0.00,40.00,0,-999,0,0.00
2013-9-7,84,70,60,-100,-100,-100,0,0,100,0.00,40.00,0,-999,0,0.48
2013-9-8,70,62,56,-100,-100,-100,0,0,100,0.00,40.00,0,-999,0,0.67
2013-9-9,68,59,51,-100,-100,-100,0,0,100,0.00,40.00,0,-999,0,0.13
2013-9-10,73,61,52,-100,-100,-100,0,0,100,0.00,40.00,0,-999,0,0.00
2013-9-11,79,64,57,-100,-100,-100,0,0,100,0.00,40.00,0,-999,0,0.00
2013-9-12,71,61,55,-100,-100,-100,0,0,100,0.00,40.00,0,-999,0,0.02
2013-9-13,68,62,54,-100,-100,-100,0,0,100,0.00,40.00,0,-999,0,0.11
2013-9-14,65,58,51,-100,-100,-100,0,0,100,0.00,40.00,0,-999,0,1.23
2013-9-15,61,58,55,-100,-100,-100,0,0,100,0.00,40.00,0,-999,0,1.47
2013-9-16,77,62,50,-100,-100,-100,0,0,100,0.00,40.00,0,-999,0,0.00
2013-9-17,82,66,56,-100,-100,-100,0,0,100,0.00,40.00,0,-999,0,0.03
2013-9-18,56,52,42,-100,-100,-100,0,0,100,0.00,40.00,0,-999,0,0.24
2013-9-19,56,46,40,-100,-100,-100,0,0,100,0.00,40.00,0,-999,0,0.02
2013-9-20,72,52,38,-100,-100,-100,0,0,100,0.00,40.00,0,-999,0,0.02
2013-9-21,80,66,53,-100,-100,-100,0,0,100,0.00,40.00,0,-999,0,0.00
2013-9-22,71,62,52,-100,-100,-100,0,0,100,0.00,40.00,0,-999,0,0.00
2013-9-23,65,55,45,-100,-100,-100,0,0,100,0.00,40.00,0,-999,0,0.07
2013-9-24,74,56,44,-100,-100,-100,0,0,100,0.00,40.00,0,-999,0,0.07
2013-9-25,58,51,45,-100,-100,-100,0,0,100,0.00,40.00,0,-999,0,0.27
2013-9-26,46,43,38,-100,-100,-100,0,0,100,0.00,40.00,0,-999,0,0.50
2013-9-27,41,37,33,-100,-100,-100,0,0,100,0.00,40.00,0,-999,0,0.29
2013-9-28,51,40,31,-100,-100,-100,0,0,100,0.00,40.00,0,-999,0,1.64
2013-9-29,63,53,42,-100,-100,-100,0,0,100,0.00,40.00,0,-999,0,0.11
2013-9-30,70,52,41,-100,-100,-100,0,0,100,0.00,40.00,0,-999,0,0.00
2013-10-1,52,49,47,-100,-100,-100,0,0,100,0.00,40.00,0,-999,0,0.00
2013-10-2,56,46,38,-100,-100,-100,0,0,100,0.00,40.00,0,-999,0,0.56
2013-10-3,42,39,37,-100,-100,-100,0,0,100,0.00,40.00,0,-999,0,1.81
2013-10-4,35,33,32,-100,-100,-100,0,0,100,0.00,40.00,0,-999,0,0.05
2013-10-5,42,32,22,-100,-100,-100,0,0,100,0.00,40.00,0,-999,0,1.18
2013-10-6,64,45,37,-100,-100,-100,0,0,100,0.00,40.00,0,-999,0,0.73
2013-10-7,65,53,43,-100,-100,-100,0,0,100,0.00,40.00,0,-999,0,0.08
2013-10-8,61,51,42,-100,-100,-100,0,0,100,0.00,40.00,0,-999,0,0.00
2013-10-9,56,46,39,-100,-100,-100,0,0,100,0.00,40.00,0,-999,0,0.00
2013-10-10,58,48,43,-100,-100,-100,0,0,100,0.00,40.00,0,-999,0,0.00
2013-10-11,49,43,32,-100,-100,-100,0,0,100,0.00,40.00,0,-999,0,0.00
2013-10-12,51,40,31,-100,-100,-100,0,0,100,0.00,40.00,0,-999,0,0.00
2013-10-13,51,42,36,-100,-100,-100,0,0,100,0.00,40.00,0,-999,0,0.21
2013-10-14,42,37,33,-100,-100,-100,0,0,100,0.00,40.00,0,-999,0,0.30
2013-10-15,43,35,31,-100,-100,-100,0,0,100,0.00,40.00,0,-999,0,0.01
2013-10-16,54,40,32,-100,-100,-100,0,0,100,0.00,40.00,0,-999,0,0.00
2013-10-17,38,35,32,-100,-100,-100,0,0,100,0.00,40.00,0,-999,0,0.04
2013-10-18,42,35,27,-100,-100,-100,0,0,100,0.00,40.00,0,-999,0,0.12
2013-10-19,58,42,34,-100,-100,-100,0,0,100,0.00,40.00,0,-999,0,0.06
2013-10-20,44,39,32,-100,-100,-100,0,0,100,0.00,40.00,0,-999,0,0.07
2013-10-21,55,44,35,-100,-100,-100,0,0,100,0.00,40.00,0,-999,0,0.00
2013-10-22,59,46,37,-100,-100,-100,0,0,100,0.00,40.00,0,-999,0,0.00
2013-10-23,57,44,38,-100,-100,-100,0,0,100,0.00,40.00,0,-999,0,0.00
2013-10-24,56,42,34,-100,-100,-100,0,0,100,0.00,40.00,0,-999,0,0.00
2013-10-25,66,50,40,-100,-100,-100,0,0,100,0.00,40.00,0,-999,0,0.00
2013-10-26,65,47,38,-100,-100,-100,0,0,100,0.00,40.00,0,-999,0,0.00
2013-10-27,63,47,39,-100,-100,-100,0,0,100,0.00,40.00,0,-999,0,0.00
2013-10-28,37,33,28,-100,-100,-100,0,0,100,0.00,40.00,0,-999,0,0.00
2013-10-29,33,29,23,-100,-100,-100,0,0,100,0.00,40.00,0,-999,0,0.07
2013-10-30,43,34,30,-100,-100,-100,0,0,100,0.00,40.00,0,-999,0,0.27
2013-10-31,52,40,30,-100,-100,-100,0,0,100,0.00,40.00,0,-999,0,0.27
2013-11-1,46,38,31,-100,-100,-100,0,0,100,0.00,40.00,0,-999,0,0.00
2013-11-2,59,40,33,-100,-100,-100,0,0,100,0.00,40.00,0,-999,0,0.00
2013-11-3,47,36,28,-100,-100,-100,0,0,100,0.00,40.00,0,-999,0,0.03
2013-11-4,36,29,22,-100,-100,-100,0,0,100,0.00,40.00,0,-999,0,0.02
2013-11-5,34,24,17,-100,-100,-100,0,0,100,0.00,40.00,0,-999,0,0.01
2013-11-6,43,32,25,-100,-100,-100,0,0,100,0.00,40.00,0,-999,0,0.10
2013-11-7,49,38,27,-100,-100,-100,0,0,100,0.00,40.00,0,-999,0,0.16
2013-11-8,50,40,33,-100,-100,-100,0,0,100,0.00,40.00,0,-999,0,0.05
2013-11-9,43,36,30,-100,-100,-100,0,0,100,0.00,40.00,0,-999,0,0.01
2013-11-10,58,46,37,-100,-100,-100,0,0,100,0.00,40.00,0,-999,0,0.00
2013-11-11,37,33,30,-100,-100,-100,0,0,100,0.00,40.00,0,-999,0,0.01
2013-11-12,55,42,29,-100,-100,-100,0,0,100,0.00,40.00,0,-999,0,0.01
2013-11-13,57,48,39,-100,-100,-100,0,0,100,0.00,40.00,0,-999,0,0.00
2013-11-14,45,36,30,-100,-100,-100,0,0,100,0.00,40.00,0,-999,0,0.00
2013-11-15,49,36,30,-100,-100,-100,0,0,100,0.00,40.00,0,-999,0,0.00
2013-11-16,41,36,30,-100,-100,-100,0,0,100,0.00,40.00,0,-999,0,0.00
2013-11-17,43,31,21,-100,-100,-100,0,0,100,0.00,40.00,0,-999,0,0.04
2013-11-18,56,39,27,-100,-100,-100,0,0,100,0.00,40.00,0,-999,0,0.01
2013-11-19,58,47,39,-100,-100,-100,0,0,100,0.00,40.00,0,-999,0,0.00
2013-11-20,42,28,12,-100,-100,-100,0,0,100,0.00,40.00,0,-999,0,0.00
2013-11-21,21,15,11,-100,-100,-100,0,0,100,0.00,40.00,0,-999,0,0.03
2013-11-22,37,25,19,-100,-100,-100,0,0,100,0.00,40.00,0,-999,0,0.02
2013-11-23,45,29,20,-100,-100,-100,0,0,100,0.00,40.00,0,-999,0,0.01
2013-11-24,57,42,32,-100,-100,-100,0,0,100,0.00,40.00,0,-999,0,0.01
2013-11-25,40,32,27,-100,-100,-100,0,0,100,0.00,40.00,0,-999,0,0.00
2013-11-26,44,34,26,-100,-100,-100,0,0,100,0.00,40.00,0,-999,0,0.00
2013-11-27,54,40,29,-100,-100,-100,0,0,100,0.00,40.00,0,-999,0,0.00
2013-11-28,49,36,27,-100,-100,-100,0,0,100,0.00,40.00,0,-999,0,0.00
2013-11-29,54,41,35,-100,-100,-100,0,0,100,0.00,40.00,0,-999,0,0.00
2013-11-30,50,38,32,-100,-100,-100,0,0,100,0.00,40.00,0,-999,0,0.00
2013-12-1,49,42,34,-100,-100,-100,0,0,100,0.00,40.00,0,-999,0,0.00
2013-12-2,45,38,33,-100,-100,-100,0,0,100,0.00,40.00,0,-999,0,0.00
2013-12-3,26,14,4,-100,-100,-100,0,0,100,0.00,40.00,0,-999,0,0.00
2013-12-4,7,-1,-4,-100,-100,-100,0,0,100,0.00,40.00,0,-999,0,0.00
2013-12-5,5,0,-6,-100,-100,-100,0,0,100,0.00,40.00,0,-999,0,0.00
2013-12-6,-2,-8,-11,-100,-100,-100,0,0,100,0.00,40.00,0,-999,0,0.00
2013-12-7,-1,-5,-12,-100,-100,-100,0,0,100,0.00,40.00,0,-999,0,0.00
2013-12-8,11,4,2,-100,-100,-100,0,0,100,0.00,40.00,0,-999,0,0.00
2013-12-9,26,16,2,-100,-100,-100,0,0,100,0.00,40.00,0,-999,0,0.00
2013-12-10,31,20,8,-100,-100,-100,0,0,100,0.00,40.00,0,-999,0,0.00
2013-12-11,33,21,8,-100,-100,-100,0,0,100,0.00,40.00,0,-999,0,0.02
2013-12-12,43,34,27,-100,-100,-100,0,0,100,0.00,40.00,0,-999,0,0.01
2013-12-13,37,32,27,-100,-100,-100,0,0,100,0.00,40.00,0,-999,0,0.00
2013-12-14,43,31,24,-100,-100,-100,0,0,100,0.00,40.00,0,-999,0,0.00
2013-12-15,56,43,33,-100,-100,-100,0,0,100,0.00,40.00,0,-999,0,0.19
2013-12-16,50,43,31,-100,-100,-100,0,0,100,0.00,40.00,0,-999,0,0.09
2013-12-17,58,42,27,-100,-100,-100,0,0,100,0.00,40.00,0,-999,0,0.01
2013-12-18,56,41,31,-100,-100,-100,0,0,100,0.00,40.00,0,-999,0,0.01
2013-12-19,31,23,9,-100,-100,-100,0,0,100,0.00,40.00,0,-999,0,0.00
2013-12-20,27,22,18,-100,-100,-100,0,0,100,0.00,40.00,0,-999,0,0.00
2013-12-21,29,25,23,-100,-100,-100,0,0,100,0.00,40.00,0,-999,0,0.00
2013-12-22,22,17,6,-100,-100,-100,0,0,100,0.00,40.00,0,-999,0,0.00
2013-12-23,45,26,5,-100,-100,-100,0,0,100,0.00,40.00,0,-999,0,0.10
2013-12-24,45,31,23,-100,-100,-100,0,0,100,0.00,40.00,0,-999,0,0.05
2013-12-25,38,28,20,-100,-100,-100,0,0,100,0.00,40.00,0,-999,0,0.01
2013-12-26,45,37,33,-100,-100,-100,0,0,100,0.00,40.00,0,-999,0,0.02
2013-12-27,52,43,39,-100,-100,-100,0,0,100,0.00,40.00,0,-999,0,0.01
2013-12-28,52,31,9,-100,-100,-100,0,0,100,0.00,40.00,0,-999,0,0.01
2013-12-29,34,24,10,-100,-100,-100,0,0,100,0.00,40.00,0,-999,0,0.00
2013-12-30,36,31,24,-100,-100,-100,0,0,100,0.00,40.00,0,-999,0,0.01
2013-12-31,44,38,32,-100,-100,-100,0,0,100,0.00,40.00,0,-999,0,0.01
2014-1-1,31,26,21,-100,-100,-100,0,0,100,0.00,40.00,0,-999,0,0.07
2014-1-2,40,29,20,-100,-100,-100,0,0,100,0.00,40.00,0,-999,0,0.04